To NAV CANADA Home Page Login to a new session Search on AWWS site Feedback and Comments Disclaimer Vers la page française équivalente Tips FAQ What's new on the site To the Forecasts and Observations / NOTAM section To "File a Flight Plan" website Publications and other links Update of the User's profile FIC Telephone Numbers My Weather Data Folder Route Weather Data Regional Weather Data Local Weather Data To the Forecasts and Observations / NOTAM section
Request Generated 02/24/2017 at 03:36:44 UTC . Weather information available at that time is displayed.

METAR/TAF

MOOSE JAW/AIR VICE MARSHAL C.M. MCEWEN/SK    

SPECI CYMJ 240035Z 32007KT 15SM -SN OVC044 M02/M09 A3012 RMK SC8 LAST OBS/NEXT 241000 UTC SLP232=
METAR CYMJ 240000Z 33006KT 15SM -SN OVC044 M02/M10 A3012 RMK SC8 SLP232=

TAF AMD CYMJ 240037Z 2400/2412 FCST CNCLD DUE END OF FLYING PROGRAM
RMK NXT FCST WILL BE ISSUED AT 241115Z=
Your time UTC time
Weather data provided by Environment Canada and NAV CANADA